Погода Гродно

Погода Гродно : погода сейчас, прогноз погоды и архив. Всё, что Вы хотите узнать о погоде Гродно!

Поиск расширенной информации на нашем сайте:

Другие новости

Новости СМИ2

Главная страница сайта

Новости сайта

03.07.2017

Напоминаем, что на нашем специализированном сайте Метеоцентр.Азия вы можете получить высокодетализированные автоматические прогнозы погоды по пунктам России, СНГ и мира в авиационном формате (включающие направление и скорость ветра, видимость, явления погоды, количество и форму облачности, нижнюю и верхнюю границу облачности).


Погода Гродно - сегодня

Время (UTC), дата Ветер
(°,м/с) 
Видим.   Явления Облачность Т
(°С)
Тd
(°С)
f(%) Тe
(°С)
Pmin
(гПа)
dP
(гПа)
Po
(мм)
O2
(г/м3)
Тmin Tmax R s Состояние
почвы
12 13.07.18 260 (З) 13000 м    8/6 900 м средняя 
[Cu hum|Ac trans]
+23.4 +12.2 49 +28  1010  -1  745  274           
15 13.07.18 250 (З) 13000 м    9/6 1000 м средняя 
[Cu hum|Ac trans]
+21.7 +12.7 57 +27  1009.3  -0.6  744  275           
18 13.07.18 280 (З) 13000 м    8/6 900 м средняя 
[Cu hum|Ac trans]
+19.1 +13.1 68 +26  1009.6  744  278    +23.7       
21 13.07.18 250 (З) 9000 м  слаб. ливневой дождь  9/8 900 м кучево-дожд., средняя 
[Cb calv|Ac trans]
+16.3 +14.6 90 +26  1009.7  744  280      0.0     
00 14.07.18 260 (З) 10 км  {ливн. осадки}  8/6 800 м средняя 
[Sc|Ac trans]
+14.9 +12.7 87 +21  1008.9  -0.9  744  282         
03 14.07.18 250 (З) 8000 м  дымка  8/6 1000 м средняя 
[Sc|Ac trans]
+14.9 +14.6 98 +24  1008.9  744  281         
06 14.07.18 280 (З) 6000 м  в посл. час ливневой дождь  9/8 270 м кучево-дожд., средняя 
[Cb calv|Ac trans]
+16.9 +16.2 96 +29  1008.8  744  279  +14       
09 14.07.18 250 (З) 9000 м  в посл. час ливневой дождь  9/8 270 м средняя 
[St|Ac trans]
+19 +16.9 88 +32  1008.5  -0.2  743  276      0.0     
12 14.07.18 320 (СЗ) 10 км  гроза без осадков{ливн. осадки}  9/8 600 м кучево-дожд., средняя 
[Cb cap|Ac trans]
+20.2 +16 77 +31  1007.8  -0.6  743  275      0.0     
15 14.07.18 350 (С) 11000 м  {гроза}  8/6 1000 м средняя 
[Sc diur, vesp|Ac trans]
+21.5 +15.3 68 +31  1007.1  -0.5  743  274      0.3     
18 14.07.18 340 (С) 10 км  гроза без осадков  9/6 800 м кучево-дожд., средняя 
[Cb cap|Ac trans]
+20.3 +16.7 80 +32  1007.7  0.4  743  275    +22.1  0.3     
21 14.07.18 310 (СЗ) 10 км  в посл. час ливневой дождь{гроза}  9/6 900 м средняя 
[Sc|Ac trans]
+16.9 +15.3 90 +26  1008.7  0.8  743  279         
00 15.07.18 320 (СЗ) 8000 м  дымка{гроза, ливн. осадки}  9/4 1000 м средняя 
[Sc|Ac trans]
+16.5 +15.5 94 +27  1008.8  0.1  744  279           
03 15.07.18 300 (СЗ) 7000 м  в посл. час ливневой дождь  9/8 180 м средняя 
[Frnb|Ac trans]
+16.6 +16.1 97 +28  1008.8  744  279         
06 15.07.18 320 (СЗ) 8000 м  дымка{ливн. осадки}  9/8 120 м средняя 
[St|Ac trans]
+17.5 +16.4 93 +29  1009  0.3  744  278  +16.3       
09 15.07.18 340 (С) 10 км  {ливн. осадки}  9/9 330 м средняя 
[St|Ac trans]
+19.6 +17.5 88 +34  1009.1  0.2  744  276      0.0     
12 15.07.18 350 (С) 11000 м  в посл. час ливневой дождь  9/8 540 м средняя 
[St|Ac trans]
+21.9 +18.1 79 +37  1008.6  -0.3  744  273      0.0     
15 15.07.18 360 (С) 4{10}  12000 м  {гроза, ливн. осадки}  9/4 600 м средняя 
[Sc|Ac trans]
+22.4 +18.3 78 +38  1008.1  -0.5  743  273      0.3     
18 15.07.18 320 (СЗ) 10 км  {гроза, ливн. осадки}  9/4 600 м средняя 
[Sc|Ac trans]
+21.3 +19.4 89 +39  1008.5  0.4  744  273    +22.5  0.3     
21 15.07.18 340 (С) 10 км    8/3 600 м средняя 
[Sc|Ac trans]
+19 +17.7 92 +33  1008.8  0.1  744  276           
00 16.07.18 340 (С) 10 км    8/3 1000 м средняя 
[Sc|Ac trans]
+18.1 +17.3 95 +31  1008.9  744  277           
03 16.07.18 350 (С) 2600 м  гроза, ливневой дождь  9/6 600 м кучево-дожд., средняя 
[Cb cap|Ac trans]
+17.5 +17.2 98 +31  1007.2  -1.7  742  277         
06 16.07.18 040 (СВ) 9000 м  дымка{гроза, ливн. осадки}  9/8 300 м средняя 
[St|Ac trans]
+18.8 +17.4 92 +32  1008.3  1.1  743  276  +17.3       
09 16.07.18 050 (СВ) 9000 м  слаб. ливневой дождь  9/8 300 м кучево-дожд., средняя 
[Cb calv|Ac trans]
+19.5 +17.4 88 +33  1008.7  0.5  744  276      0.0     
12 16.07.18 040 (СВ) 10 км  {ливн. осадки}  9/8 330 м средняя 
[St|Ac trans]
+19.2 +17.9 92 +34  1008.7  744  276         
Время (UTC), дата Ветер
(°,м/с) 
Видим.   Явления Облачность Т
(°С)
Тd
(°С)
f(%) Тe
(°С)
Pmin
(гПа)
dP
(гПа)
Po
(мм)
O2
(г/м3)
Тmin Tmax R s Состояние
почвы

Для получения пояснительной информации подведите курсор к названию столбца.

ПОГОДА Гродно - архив

Всё, что Вы хотите узнать о погоде Гродно - удобно и подробно!

Выберите нужную дату (начиная с 1 января 2015* года) и нажмите кнопку "Найти".
Будут отображены архивные сводки погоды по пункту Гродно, начиная с указанной даты.


Отображать данные в формате CSV (для использования в таблицах Excel)


Внимание! Наш архив погоды предназначен исключительно для личного некоммерческого использования в познавательных целях. Если Вам необходимы официальные справки о состоянии погоды (для производственных, юридических, коммерческих и т.п. целей), обращайтесь в органы Росгидромета.

*Примечание: данная дата относится к архиву по метеостанциям СССР (Россия, СНГ, Балтия).
Архив по метеостанциям Зарубежной Европы и Азии (кроме Китая) хранится 10 дней, по другим регионам земного шара (Китай, Африка, Америка, Австралия, Океания) - 1 день.

Гродно - район местоположения метеостанции


Название, широта, долгота, высота метеостанции:
Гродно 53.6°ш. 24.1°д. 134 м над ур. моря [Беларусь]

Дополнительная информация

В oтличие oт бoльшинства пoгoдных сайтoв мы публикуем пoдрoбную метеoинфoрмацию в детальнoм прoфессиoнальнoм фoрмате.

Характеристики температуры и влажнoсти вoздуха измеряются на высoте 2 м в тени вдали oт зданий и деревьев.
Скoрoсть ветра измеряется на высoте 10 м (на урoвне рoста челoвека скoрoсть ветра ниже в 1.5-2 раза). Если метеoстанция нахoдится в гoрoде или в лесу, тo скoрoсть ветра занижена на 2-4 м/с пo сравнению с oткрытым местoм. Скoрoсть ветра над акватoриями крупных рек и oзёр, а также на вершинах хoлмoв на 2-5 м/с выше, чем в oбычных услoвиях.
Атмoсфернoе давление в разных тoчках местнoсти мoжет значительнo oтличаться oт давления на метеoстанции, в зависимoсти oт услoвий рельефа (при пoдъёме на 10 м давление пoнижается примернo на 1 мм рт.ст.).